Regional Weather Roundup
Issued by NWS

Home | Current Version | Previous Version | Graphics & Text | Print | Product List | Glossary On
Versions: 1 2 3 4 5 6 7 8 9 10 11 12 13 14 15 16 17 18 19 20 21 22 23 24 25 26 27 28 29 30 31 32 33 34 35 36 37 38 39 40 41 42 43 44 45 46 47 48 49 50
000
ASUS43 KLOT 290508
RWRIL

ILLINOIS REGIONAL WEATHER ROUNDUP
NATIONAL WEATHER SERVICE CHICAGO/ROMEOVILLE IL
1200 AM CDT FRI MAY 29 2015

NOTE: "FAIR" INDICATES FEW OR NO CLOUDS BELOW 12,000 FEET WITH NO
SIGNIFICANT WEATHER AND/OR OBSTRUCTIONS TO VISIBILITY.

* THESE STATIONS ARE NOT UNDER NWS QUALITY CONTROL. THEY ALSO MAY NOT
  REPORT WEATHER SUCH AS PRECIPITATION OR FOG.

ILZ001-002-007-009-015-016-024-290600-
NORTHWEST ILLINOIS

CITY           SKY/WX    TMP DP  RH WIND       PRES   REMARKS
MOLINE         MOCLDY    66  60  81 CALM      30.01F
STERLING*      CLEAR     66  55  68 SE6       30.03F
SAVANNA*       PTCLDY    68  56  66 SW3       30.02S
$$

ILZ003-004-008-010-011-017-018-290600-
NORTH CENTRAL ILLINOIS

CITY           SKY/WX    TMP DP  RH WIND       PRES   REMARKS
ROCKFORD       MOCLDY    68  55  63 SE7       30.06R
FREEPORT*      PTCLDY    62  53  73 CALM      30.05S
ROCHELLE*      PTCLDY    66  57  72 SE8       30.06R
DE KALB*       CLEAR     63  55  76 E6        30.07R
PERU*          MOCLDY    70  55  58 S5        30.06R
$$

ILZ005-006-012>014-019>023-290600-
NORTHEAST ILLINOIS

CITY           SKY/WX    TMP DP  RH WIND       PRES   REMARKS
CHICAGO-OHARE  MOCLDY    65  54  67 SE5       30.05F
CHICAGO-MIDWAY MOCLDY    69  57  65 SE6       30.05F
AURORA         CLEAR     67  55  65 SE6       30.05S
LANSING*       CLEAR     67  56  67 SE6       30.06F
JOLIET*        CLEAR     70  57  64 SE5       30.05S
WAUKEGAN       PTCLDY    59  53  80 CALM      30.06F
DUPAGE AIRPORT PTCLDY    67  55  65 SE6       30.05S
KANKAKEE*      PTCLDY    72  59  64 S7        30.07S
WHEELING       PTCLDY    64  54  69 CALM      30.07F
MORRIS*        CLEAR     69  54  58 SE6       30.03S
ROMEOVILLE*    PTCLDY    66  55  67 SE8       30.05F
NORTHERLY ISL    N/A     60  53  77 E1          N/A
$$

LMZ740>746-290600-
SOUTHERN LAKE MICHIGAN

STATION/POSITION SKY/WX   TEMP    WIND        PRES    VSBY  WAVE
                          AIR SEA DIR/SP/G                  HT/PER
                          (F)     (DEG/KT/KT) (MB)    (MI)  (FT/S)
SOUTHERN BUOY              48 38  110/  8/ 10 1019.2F         0
HARRISON CRIB              60     160/  5/  7   N/A
BURNHAM HARBOR             60      CALM  /  1   N/A
BURNS HARBOR               75     120/ 10/ 20 1019.0F
MICHIGAN CITY              72      90/  9/ 12   N/A
MICHIGAN CITY 6N           66 56  150/ 10/ 10   N/A           1
ST. JOSEPH                 67 57  160/ 12/ 14   N/A           1
$$

ILZ025>027-034>036-040-047-049-050-058-095>099-290600-
WEST-CENTRAL ILLINOIS

CITY           SKY/WX    TMP DP  RH WIND       PRES   REMARKS
QUINCY         CLOUDY    68  65  90 SE7       30.02R
GALESBURG*     MOCLDY    65  62  87 SE3       30.03R
MACOMB*        MOCLDY    66  65  95 CALM      30.05S
JACKSONVILLE*  PTCLDY    71  67  87 SE7       30.04S
PITTSFIELD*    PTCLDY    67  65  93 CALM      30.05S
$$

ILZ028>032-037-038-041>044-048-051>054-059>061-290600-
CENTRAL ILLINOIS

CITY           SKY/WX    TMP DP  RH WIND       PRES   REMARKS
PONTIAC        PTCLDY    68  60  74 SE3       30.06S
BLOOMINGTON    MOCLDY    68  64  86 S7        30.08R
DECATUR        CLEAR     71  63  75 S5        30.06S
PEORIA         CLEAR     70  62  76 E5        30.04S
LACON*         CLOUDY    67  60  79 CALM      30.05R
LINCOLN*       CLEAR     69  64  82 CALM      30.03S
SPRINGFIELD    CLEAR     70  66  87 SE6       30.05S
TAYLORVILLE    CLEAR     70  64  83 S6        30.05S
$$

ILZ033-039-045-046-055>057-062-063-290600-
EAST-CENTRAL ILLINOIS

CITY           SKY/WX    TMP DP  RH WIND       PRES   REMARKS
CHAMPAIGN      PTCLDY    71  63  75 SE8       30.07F
DANVILLE*      CLOUDY    73  64  72 S7        30.06S
RANTOUL*       PTCLDY    73  64  72 SE6       30.07F
PARIS*         PTCLDY    72  64  76 S6        30.10S
$$

ILZ079-100>102-290600-
SOUTHWEST ILLINOIS

CITY           SKY/WX    TMP DP  RH WIND       PRES   REMARKS
ALTON          CLEAR     68  68 100 SE3       30.05F
BELLEVILLE     PTCLDY    69  68  98 SE1       30.04S
CAHOKIA*       PTCLDY    72  64  76 S3        30.04F
SPARTA*        PTCLDY    69  66  88 SE6       30.06F
$$

ILZ064>066-069>071-074>076-080>082-084>086-088>090-092>094-290600-
SOUTH-CENTRAL ILLINOIS

CITY           SKY/WX    TMP DP  RH WIND       PRES   REMARKS
CARBONDALE     CLEAR     70  65  84 SE6       30.07S
CAIRO*         CLEAR     69  67  92 CALM      30.08S
EFFINGHAM*     CLEAR     71  62  74 SE5       30.09S
MARION         CLEAR     72  66  83 SE5       30.08F
MT. VERNON     CLEAR     64  61  88 CALM      30.08F
CENTRALIA*     CLEAR     69  64  85 SE5       30.06F
SALEM*         CLEAR     74  65  74 S5        30.08S
METROPOLIS*    FOG       69  69 100 CALM      30.08S VSB 3/4
$$

ILZ067-068-072-073-078-083-087-091-290600-
SOUTHEAST ILLINOIS

CITY           SKY/WX    TMP DP  RH WIND       PRES   REMARKS
LAWRENCEVILLE  CLEAR     71  66  84 SE8       30.09F
FLORA*         CLEAR     69  64  83 S6        30.08F
FAIRFIELD*     CLEAR     72  65  79 CALM      30.07S
HARRISBURG*    PTCLDY    70  66  89 CALM      30.09S
ROBINSON*      CLEAR     73  65  77 S6        30.10S
CARMI*         CLEAR     70  63  78 SE3       30.08S
$$

ABBREVIATIONS USED IN REMARKS
   TC - TEMPERATURE IN CELSIUS
  WCI - WIND CHILL INDEX
   HX - HEAT INDEX
  VSB - VISIBILITY
$$



USA.gov is the U.S. government's official web portal to all federal, state and local government web resources and services.